{"data":{"norad_id":65461,"epoch":"2026-09-20T21:55:04.448352Z","epoch_age_seconds":79070,"freshness":"FRESH","line1":"1 65461U 25195D   26263.91324593  .00017039  00000+0  51425-3 0  9998","line2":"2 65461  53.1590  67.8184 0001122 103.7050 256.4078 15.34402068 59934","mean_motion":15.34402068,"eccentricity":0.0001122,"inclination_deg":53.159,"raan_deg":67.8184,"arg_perigee_deg":103.705,"mean_anomaly_deg":256.4078,"bstar":0.00051425,"rev_number":5993,"period_min":93.847631597431,"perigee_km":461.92955209689,"apogee_km":463.46463526751,"semimajor_km":6840.8340936822,"source":"CELESTRAK","updated_at":"2026-09-21T09:00:35.614239Z"}}